| time (UTC) | temp C | wind direction | speed KPH | gust KPH | rain 1hr cm | rain 24hr cm | rain mn cm | humidity % | barometer mb |
| 20260507054549 | 6 | 300 | 0.0 | 0.0 | 0.00 | 0.03 | 0.00 | 87 | 1028.1 |
| 20260507053115 | 7 | 300 | 0.0 | 0.0 | 0.00 | 0.03 | 0.00 | 87 | 1028.2 |
| 20260507051548 | 7 | 300 | 0.0 | 0.0 | 0.00 | 0.03 | 0.00 | 87 | 1028.3 |
| 20260507050045 | 7 | 300 | 0.0 | 1.6 | 0.00 | 0.03 | 0.00 | 87 | 1028.2 |
| 20260507044541 | 7 | 300 | 0.0 | 0.0 | 0.00 | 0.03 | 0.03 | 85 | 1027.9 |
| 20260507043040 | 7 | 300 | 0.0 | 0.0 | 0.00 | 0.03 | 0.03 | 84 | 1027.8 |
| 20260507041539 | 8 | 300 | 0.0 | 0.0 | 0.00 | 0.03 | 0.03 | 83 | 1027.7 |
| 20260507040038 | 8 | 300 | 0.0 | 0.0 | 0.00 | 0.03 | 0.03 | 82 | 1027.8 |
| 20260507034540 | 8 | 300 | 0.0 | 0.0 | 0.00 | 0.03 | 0.03 | 80 | 1027.7 |
| 20260507033044 | 8 | 300 | 0.0 | 1.6 | 0.00 | 0.03 | 0.03 | 79 | 1027.8 |
| 20260507031538 | 9 | 300 | 0.0 | 1.6 | 0.00 | 0.03 | 0.03 | 77 | 1027.7 |
| 20260507030037 | 9 | 23 | 0.0 | 0.0 | 0.00 | 0.03 | 0.03 | 74 | 1027.3 |
| 20260507024539 | 10 | 23 | 0.0 | 0.0 | 0.00 | 0.03 | 0.03 | 73 | 1027.2 |
| 20260507023037 | 10 | 23 | 0.0 | 0.0 | 0.00 | 0.03 | 0.03 | 72 | 1027.2 |
| 20260507021533 | 10 | 23 | 0.0 | 0.0 | 0.00 | 0.03 | 0.03 | 72 | 1026.9 |
| 20260507020032 | 10 | 23 | 0.0 | 1.6 | 0.00 | 0.03 | 0.03 | 72 | 1026.9 |
| 20260507014530 | 11 | 23 | 0.0 | 0.0 | 0.00 | 0.03 | 0.03 | 72 | 1026.7 |
| 20260507013026 | 11 | 23 | 0.0 | 0.0 | 0.00 | 0.03 | 0.03 | 69 | 1026.3 |
| 20260507011533 | 12 | 23 | 0.0 | 0.0 | 0.00 | 0.03 | 0.03 | 67 | 1026.2 |
| 20260507010027 | 13 | 23 | 0.0 | 1.6 | 0.00 | 0.03 | 0.03 | 64 | 1026.2 |
| 20260507004535 | 13 | 10 | 0.0 | 1.6 | 0.00 | 0.03 | 0.03 | 60 | 1026.0 |
| 20260507003025 | 14 | 19 | 1.6 | 8.0 | 0.00 | 0.03 | 0.03 | 58 | 1026.0 |
| 20260507001524 | 14 | 11 | 1.6 | 8.0 | 0.00 | 0.03 | 0.03 | 56 | 1025.8 |
| 20260507000024 | 15 | 20 | 0.0 | 8.0 | 0.00 | 0.03 | 0.03 | 57 | 1025.8 |
| 20260506234523 | 15 | 23 | 3.2 | 11.3 | 0.00 | 0.03 | 0.03 | 55 | 1025.7 |
| 20260506233024 | 15 | 23 | 3.2 | 11.3 | 0.00 | 0.03 | 0.03 | 54 | 1025.5 |
| 20260506231522 | 15 | 26 | 3.2 | 14.5 | 0.00 | 0.03 | 0.03 | 53 | 1025.5 |
| 20260506230020 | 15 | 39 | 6.4 | 14.5 | 0.00 | 0.03 | 0.03 | 54 | 1025.2 |
| 20260506224521 | 15 | 26 | 4.8 | 14.5 | 0.00 | 0.03 | 0.03 | 56 | 1024.8 |
| 20260506223018 | 15 | 20 | 8.0 | 14.5 | 0.00 | 0.03 | 0.03 | 56 | 1024.6 |
| 20260506221517 | 15 | 39 | 4.8 | 14.5 | 0.00 | 0.03 | 0.03 | 57 | 1024.6 |
| 20260506220030 | 15 | 20 | 3.2 | 9.7 | 0.00 | 0.03 | 0.03 | 59 | 1024.8 |
| 20260506214516 | 15 | 34 | 4.8 | 12.9 | 0.00 | 0.03 | 0.03 | 59 | 1025.0 |
| 20260506213015 | 15 | 24 | 3.2 | 9.7 | 0.00 | 0.03 | 0.03 | 61 | 1025.0 |
| 20260506211518 | 15 | 6 | 8.0 | 17.7 | 0.00 | 0.03 | 0.03 | 60 | 1025.1 |
| 20260506210016 | 15 | 70 | 1.6 | 9.7 | 0.00 | 0.03 | 0.03 | 63 | 1025.3 |
| 20260506204514 | 15 | 16 | 4.8 | 12.9 | 0.00 | 0.03 | 0.03 | 62 | 1025.5 |
| 20260506203019 | 15 | 4 | 3.2 | 9.7 | 0.00 | 0.03 | 0.03 | 62 | 1025.8 |
| 20260506201512 | 15 | 28 | 3.2 | 19.3 | 0.00 | 0.03 | 0.03 | 62 | 1025.8 |
| 20260506200015 | 14 | 37 | 3.2 | 11.3 | 0.00 | 0.03 | 0.03 | 63 | 1026.0 |
| 20260506194511 | 15 | 39 | 1.6 | 11.3 | 0.00 | 0.03 | 0.03 | 60 | 1026.2 |
| 20260506193009 | 15 | 356 | 6.4 | 17.7 | 0.00 | 0.03 | 0.03 | 59 | 1026.2 |
| 20260506191506 | 15 | 44 | 4.8 | 12.9 | 0.00 | 0.03 | 0.03 | 61 | 1026.1 |
| 20260506190006 | 14 | 39 | 1.6 | 9.7 | 0.00 | 0.03 | 0.03 | 62 | 1026.3 |
| 20260506184502 | 13 | 18 | 3.2 | 11.3 | 0.00 | 0.03 | 0.03 | 65 | 1026.3 |
| 20260506183004 | 13 | 323 | 1.6 | 12.9 | 0.00 | 0.03 | 0.03 | 65 | 1026.6 |
| 20260506181603 | 13 | 9 | 1.6 | 6.4 | 0.00 | 0.03 | 0.03 | 66 | 1027.1 |
| 20260506180116 | 13 | 26 | 0.0 | 4.8 | 0.00 | 0.03 | 0.03 | 68 | 1027.5 |
| 20260506180001 | 13 | 27 | 1.6 | 6.4 | 0.00 | 0.03 | 0.03 | 67 | 1027.5 |
| 20260506174600 | 13 | 29 | 3.2 | 6.4 | 0.00 | 0.03 | 0.03 | 65 | 1027.7 |
| 20260506173131 | 13 | 53 | 1.6 | 8.0 | 0.00 | 0.03 | 0.03 | 65 | 1027.9 |
| 20260506171554 | 12 | 47 | 1.6 | 9.7 | 0.00 | 0.03 | 0.03 | 66 | 1027.9 |
| 20260506170052 | 12 | 63 | 3.2 | 8.0 | 0.00 | 0.03 | 0.03 | 66 | 1027.9 |
| 20260506164549 | 12 | 30 | 3.2 | 16.1 | 0.00 | 0.03 | 0.03 | 67 | 1027.5 |
| 20260506163053 | 12 | 66 | 6.4 | 12.9 | 0.00 | 0.03 | 0.03 | 68 | 1027.4 |
| 20260506161553 | 12 | 31 | 4.8 | 12.9 | 0.00 | 0.03 | 0.03 | 69 | 1026.9 |
| 20260506160040 | 11 | 7 | 6.4 | 14.5 | 0.00 | 0.03 | 0.03 | 71 | 1026.7 |
| 20260506154535 | 10 | 46 | 3.2 | 14.5 | 0.00 | 0.03 | 0.03 | 74 | 1026.7 |
| 20260506153033 | 10 | 2 | 4.8 | 14.5 | 0.00 | 0.03 | 0.03 | 75 | 1026.7 |
| 20260506151530 | 10 | 14 | 3.2 | 14.5 | 0.00 | 0.03 | 0.03 | 78 | 1026.6 |
| 20260506150028 | 9 | 36 | 4.8 | 12.9 | 0.00 | 0.03 | 0.03 | 79 | 1026.6 |
| 20260506144527 | 9 | 51 | 3.2 | 12.9 | 0.00 | 0.03 | 0.03 | 78 | 1026.7 |
| 20260506143027 | 9 | 22 | 8.0 | 20.9 | 0.00 | 0.03 | 0.03 | 78 | 1026.6 |
| 20260506141531 | 8 | 8 | 8.0 | 17.7 | 0.00 | 0.03 | 0.03 | 80 | 1026.4 |
| 20260506140023 | 8 | 31 | 4.8 | 17.7 | 0.00 | 0.03 | 0.03 | 81 | 1026.7 |
| 20260506134520 | 8 | 26 | 6.4 | 14.5 | 0.00 | 0.03 | 0.03 | 82 | 1026.6 |
| 20260506133018 | 8 | 359 | 3.2 | 12.9 | 0.00 | 0.03 | 0.03 | 85 | 1026.5 |
| 20260506131513 | 8 | 42 | 3.2 | 8.0 | 0.00 | 0.03 | 0.03 | 85 | 1026.3 |
| 20260506130016 | 7 | 25 | 1.6 | 20.9 | 0.00 | 0.03 | 0.03 | 86 | 1026.3 |
| 20260506124510 | 7 | 37 | 3.2 | 14.5 | 0.00 | 0.03 | 0.03 | 87 | 1025.9 |
| 20260506123008 | 7 | 32 | 3.2 | 12.9 | 0.00 | 0.03 | 0.03 | 88 | 1026.2 |
| 20260506121506 | 7 | 15 | 3.2 | 11.3 | 0.00 | 0.03 | 0.03 | 88 | 1025.8 |
| 20260506120011 | 7 | 27 | 4.8 | 11.3 | 0.00 | 0.03 | 0.03 | 88 | 1025.6 |
| 20260506114504 | 7 | 51 | 3.2 | 9.7 | 0.00 | 0.03 | 0.03 | 87 | 1025.5 |
| 20260506113003 | 7 | 27 | 3.2 | 11.3 | 0.00 | 0.03 | 0.03 | 88 | 1025.5 |
| 20260506111601 | 7 | 347 | 1.6 | 8.0 | 0.00 | 0.03 | 0.03 | 88 | 1025.3 |
| 20260506110057 | 7 | 30 | 1.6 | 8.0 | 0.00 | 0.03 | 0.03 | 87 | 1024.8 |
| 20260506104559 | 7 | 228 | 0.0 | 4.8 | 0.00 | 0.05 | 0.03 | 87 | 1024.5 |
| 20260506103052 | 7 | 33 | 1.6 | 6.4 | 0.00 | 0.05 | 0.03 | 86 | 1024.1 |
| 20260506101550 | 7 | 27 | 1.6 | 6.4 | 0.00 | 0.05 | 0.03 | 86 | 1023.7 |
| 20260506100046 | 7 | 32 | 3.2 | 8.0 | 0.00 | 0.05 | 0.03 | 86 | 1022.9 |
| 20260506094544 | 7 | 31 | 3.2 | 9.7 | 0.00 | 0.13 | 0.03 | 86 | 1022.8 |
| 20260506093044 | 7 | 1 | 4.8 | 9.7 | 0.00 | 0.13 | 0.03 | 86 | 1022.4 |
| 20260506091543 | 7 | 100 | 1.6 | 9.7 | 0.00 | 0.13 | 0.03 | 87 | 1022.4 |
| 20260506090041 | 7 | 43 | 4.8 | 9.7 | 0.00 | 0.13 | 0.03 | 87 | 1022.4 |
| 20260506084539 | 7 | 31 | 3.2 | 9.7 | 0.00 | 1.09 | 0.03 | 88 | 1022.5 |
| 20260506083038 | 7 | 30 | 0.0 | 8.0 | 0.00 | 1.09 | 0.03 | 88 | 1022.6 |
| 20260506081535 | 7 | 15 | 0.0 | 6.4 | 0.00 | 1.09 | 0.03 | 89 | 1022.1 |
| 20260506073031 | 7 | 13 | 0.0 | 9.7 | 0.03 | 2.84 | 0.03 | 92 | 1021.6 |
| 20260506071530 | 7 | 52 | 6.4 | 16.1 | 0.03 | 2.84 | 0.03 | 92 | 1021.4 |
| 20260506061526 | 7 | 32 | 6.4 | 12.9 | 0.00 | 3.28 | 0.00 | 94 | 1021.7 |